AVA8516 SKRG-SKRH

Flight info

Callsign AVA8516
Flight time N/A
Altitude 39000
Route BIVIG1B BIVIG DCT GERNA DCT ELB DCT ISLAG DCT VUP VUP1S
Aircraft A20N/M-SDE2E3FGHIRWXY/LB1

Departure

Time 2026-05-09 01:47
Airport Jose Maria Córdova International Airport (SKRG)

Arrival

Time N/A
Airport Almirante Padilla Airport (SKRH)
Time Latitude Longitude Altitude Speed Heading
2026-05-09 00:16 6.16972 -75.42806 7033 ft 0 kts 338°
2026-05-09 01:31 6.16964 -75.42802 7033 ft 2 kts 338°
2026-05-09 01:31 6.16950 -75.42796 7033 ft 2 kts 338°
2026-05-09 01:31 6.16937 -75.42791 7033 ft 2 kts 337°
2026-05-09 01:31 6.16923 -75.42790 7033 ft 2 kts 25°
2026-05-09 01:32 6.16913 -75.42798 7033 ft 0 kts 66°
2026-05-09 01:32 6.16911 -75.42804 7033 ft 1 kts 74°
2026-05-09 01:32 6.16910 -75.42806 7033 ft 0 kts 72°
2026-05-09 01:36 6.16912 -75.42801 7033 ft 1 kts 68°
2026-05-09 01:36 6.16918 -75.42786 7033 ft 2 kts 66°
2026-05-09 01:36 6.16928 -75.42766 7033 ft 3 kts 65°
2026-05-09 01:37 6.16941 -75.42738 7033 ft 4 kts 60°
2026-05-09 01:37 6.16962 -75.42709 7032 ft 5 kts 49°
2026-05-09 01:37 6.16993 -75.42678 7033 ft 6 kts 41°
2026-05-09 01:37 6.17030 -75.42646 7033 ft 7 kts 54°
2026-05-09 01:38 6.17032 -75.42595 7032 ft 8 kts 123°
2026-05-09 01:38 6.16983 -75.42558 7033 ft 9 kts 147°
2026-05-09 01:38 6.16924 -75.42524 7033 ft 9 kts 150°
2026-05-09 01:38 6.16864 -75.42491 7033 ft 10 kts 158°
2026-05-09 01:39 6.16794 -75.42483 7033 ft 10 kts 179°
2026-05-09 01:39 6.16722 -75.42483 7033 ft 10 kts 180°
2026-05-09 01:39 6.16649 -75.42483 7033 ft 10 kts 179°
2026-05-09 01:39 6.16573 -75.42481 7032 ft 10 kts 179°
2026-05-09 01:40 6.16497 -75.42480 7033 ft 11 kts 179°
2026-05-09 01:40 6.16420 -75.42480 7032 ft 11 kts 180°
2026-05-09 01:40 6.16341 -75.42480 7033 ft 11 kts 179°
2026-05-09 01:40 6.16262 -75.42479 7033 ft 11 kts 179°
2026-05-09 01:41 6.16182 -75.42477 7033 ft 11 kts 179°
2026-05-09 01:41 6.16102 -75.42477 7032 ft 11 kts 181°
2026-05-09 01:41 6.16021 -75.42477 7033 ft 11 kts 180°
2026-05-09 01:41 6.15939 -75.42477 7032 ft 11 kts 179°
2026-05-09 01:42 6.15858 -75.42476 7033 ft 11 kts 179°
2026-05-09 01:42 6.15775 -75.42476 7033 ft 11 kts 180°
2026-05-09 01:42 6.15694 -75.42475 7033 ft 11 kts 179°
2026-05-09 01:42 6.15612 -75.42474 7033 ft 11 kts 179°
2026-05-09 01:43 6.15530 -75.42474 7032 ft 11 kts 180°
2026-05-09 01:43 6.15447 -75.42474 7032 ft 11 kts 180°
2026-05-09 01:43 6.15364 -75.42474 7033 ft 11 kts 180°
2026-05-09 01:43 6.15281 -75.42473 7033 ft 12 kts 180°
2026-05-09 01:44 6.15197 -75.42472 7032 ft 11 kts 180°
2026-05-09 01:44 6.15115 -75.42470 7033 ft 11 kts 180°
2026-05-09 01:44 6.15032 -75.42469 7033 ft 11 kts 178°
2026-05-09 01:44 6.14969 -75.42469 7033 ft 6 kts 176°
2026-05-09 01:45 6.14931 -75.42444 7033 ft 7 kts 112°
2026-05-09 01:45 6.14927 -75.42392 7032 ft 7 kts 90°
2026-05-09 01:45 6.14942 -75.42341 7033 ft 7 kts 52°
2026-05-09 01:45 6.14985 -75.42306 7033 ft 8 kts 21°
2026-05-09 01:46 6.15047 -75.42303 7032 ft 14 kts 359°
2026-05-09 01:46 6.15408 -75.42306 7033 ft 89 kts
2026-05-09 01:46 6.16252 -75.42311 7033 ft 150 kts 359°
2026-05-09 01:46 6.17401 -75.42347 7313 ft 176 kts 356°
2026-05-09 01:47 6.18654 -75.42375 7846 ft 185 kts 358°
2026-05-09 01:47 6.19927 -75.42390 8600 ft 185 kts 359°
2026-05-09 01:47 6.21180 -75.42324 9166 ft 185 kts 16°
2026-05-09 01:47 6.22279 -75.41611 9441 ft 198 kts 49°
2026-05-09 01:48 6.23213 -75.40523 9743 ft 213 kts 41°
2026-05-09 01:48 6.24586 -75.39880 10002 ft 231 kts 11°
2026-05-09 01:48 6.26247 -75.39687 10366 ft 247 kts
2026-05-09 01:48 6.28010 -75.39484 10629 ft 269 kts
2026-05-09 01:49 6.29920 -75.39154 11026 ft 287 kts 12°
2026-05-09 01:49 6.29980 -75.39142 11038 ft 287 kts 12°
2026-05-09 01:49 6.31974 -75.38708 11407 ft 305 kts 13°
2026-05-09 01:49 6.34068 -75.38197 11919 ft 317 kts 14°
2026-05-09 01:50 6.36222 -75.37637 12682 ft 320 kts 15°
2026-05-09 01:50 6.38353 -75.37066 13445 ft 323 kts 15°
2026-05-09 01:50 6.40522 -75.36475 14188 ft 326 kts 15°
2026-05-09 01:50 6.42699 -75.35877 14915 ft 329 kts 16°
2026-05-09 01:51 6.44898 -75.35272 15626 ft 332 kts 16°
2026-05-09 01:51 6.47140 -75.34651 16324 ft 336 kts 16°
2026-05-09 01:51 6.49381 -75.34032 16999 ft 339 kts 15°
2026-05-09 01:51 6.51663 -75.33403 17666 ft 342 kts 15°
2026-05-09 01:52 6.53954 -75.32770 18313 ft 346 kts 15°
2026-05-09 01:52 6.56267 -75.32131 18946 ft 349 kts 16°
2026-05-09 01:52 6.58599 -75.31486 19556 ft 352 kts 15°
2026-05-09 01:52 6.60984 -75.30826 20147 ft 356 kts 15°
2026-05-09 01:53 6.63370 -75.30165 20722 ft 360 kts 15°
2026-05-09 01:53 6.65761 -75.29501 21284 ft 363 kts 15°
2026-05-09 01:53 6.68207 -75.28822 21844 ft 367 kts 15°
2026-05-09 01:53 6.70644 -75.28146 22387 ft 370 kts 15°
2026-05-09 01:54 6.73139 -75.27454 22927 ft 373 kts 15°
2026-05-09 01:54 6.75635 -75.26763 23459 ft 376 kts 15°